Regional Weather Roundup
Issued by NWS

Home | Current Version | Previous Version | Graphics & Text | Print | Product List | Glossary On
Versions: 1 2 3 4 5 6 7 8 9 10 11 12 13 14 15 16 17 18 19 20 21 22 23 24 25 26 27 28 29 30 31 32 33 34 35 36 37 38 39 40 41 42 43 44 45 46 47 48 49 50
018
ASUS44 KLIX 240305
RWRLA
LOUISIANA WEATHER ROUNDUP
NATIONAL WEATHER SERVICE NEW ORLEANS LA
1000 PM CDT THU OCT 23 2014

NOTE: "FAIR" INDICATES FEW OR NO CLOUDS BELOW 12,000 FEET WITH NO
      SIGNIFICANT WEATHER AND/OR OBSTRUCTIONS TO VISIBILITY.
      SKY/WX - SKY CONDITION AND SIGNIFICANT WEATHER.
      TMP - AIR TEMPERATURE.    DP   - DEWPOINT TEMPERATURE.
      RH  - RELATIVE HUMIDITY.  PRES - PRESSURE.
      HX  - HEAT INDEX.         WCI  - WIND CHILL INDEX.

*  THESE STATIONS ARE NOT NWS OR FAA STATIONS AND ARE NOT UNDER
   NWS QUALITY CONTROL.

LAZ040-048-061>063-065-066-069-240400-
SOUTHEAST LOUISIANA

CITY           SKY/WX    TMP DP  RH WIND       PRES   REMARKS
N.O. AUDUBON     N/A     65  55  69 MISG        N/A
N.O. INTL ARPT MOCLDY    63  52  67 NW3       30.08R
N.O. LAKEFRONT MOCLDY    68  52  56 N9        30.09R
N.O. DOWNTOWN* FAIR      70  48  46 CALM      30.09S
SLIDELL        MOCLDY    60  54  80 CALM      30.08S
BATON ROUGE    PTCLDY    58  52  80 VRB3      30.10S
BOOTHVILLE     MOCLDY    69  53  56 CALM      30.07S
BELLE CHASSE   CLOUDY    58  53  84 CALM      30.08R
BOGALUSA*        N/A     56  49  77 CALM      30.10S
NEW ROADS*     FAIR      56  51  84 CALM      30.11S
GONZALES*      FAIR      55  55 100 N3        30.09R
HAMMOND*       PTCLDY    59  50  72 N3        30.11R
HOUMA*         MOCLDY    58  53  84 CALM      30.08S
PORT FOURCHON* CLEAR     68  59  73 E6        30.10F

$$

LAZ041-044-053-054-240400-
SOUTHWEST LOUISIANA

CITY           SKY/WX    TMP DP  RH WIND       PRES   REMARKS
LAKE CHARLES   CLEAR     59  53  80 NE7       30.11S
LAFAYETTE      CLEAR     60  51  72 N7        30.11R
PATTERSON      CLEAR     61  55  82 N8        30.12R
SALT POINT       N/A     63  56  78 N3        30.08S
NEW IBERIA     CLEAR     58  52  80 N7        30.11R
CHENAULT AIRPK CLEAR     58  53  81 N5        30.12S

$$

LAZ027-028-240400-
CENTRAL LOUISIANA

CITY           SKY/WX    TMP DP  RH WIND       PRES   REMARKS
FORT POLK      CLEAR     55  52  88 NE5       30.12S
ALEXANDRIA INT CLEAR     53  50  89 CALM      30.11F
ALEXANDRIA     PTCLDY    49  48  97 CALM      30.13S FOG

$$

LAZ001-002-240400-
NORTHWEST LOUISIANA

CITY           SKY/WX    TMP DP  RH WIND       PRES   REMARKS
SHREVEPORT     PTCLDY    55  51  86 CALM      30.13R
BARKSDALE AFB  CLEAR     54  50  86 CALM      30.14R
DTN SHREVEPORT CLEAR     53  49  86 CALM      30.14R

$$

LAZ014-016-240400-
NORTHEAST LOUISIANA

CITY           SKY/WX    TMP DP  RH WIND       PRES   REMARKS
MONROE         FOG       48  46  93 CALM      30.14F VSB 1/4
TALLULAH       CLEAR     49  47  93 CALM      30.14S

$$




USA.gov is the U.S. government's official web portal to all federal, state and local government web resources and services.